Location: ??????
(38.1303°N, 24.0039°E)
Time: 17:51:21
(UTC+00:00)

Delta 2 Rocket - Pass Details

Date: 20 June 2021
Orbit: 416 x 801 km, 35.6° (Epoch: 26 July)

Event Time Altitude Azimuth Distance (km) Brightness Sun altitude
Exits shadow 02:08:38 11° 251° (WSW) 1,732 5.3 -9.2°
Maximum altitude 02:12:28 55° 174° (S) 595 3.3 -8.6°
Drops below altitude 10° 02:16:02 10° 96° (E) 1,597 6.4 -8.1°
Sets 02:18:06 0° 91° (E) 2,428 7.5 -7.8°
